STARLINK-31973, 59943

Orbit data source: Space-Track

STARLINK-31973, 59943 is a payload satellite owned by SpaceX/Seattle (US) in LEO that was launched on Sat, 01 Jun 2024 UTC via an FALCON 9 launch vehicle from the Air Force Eastern Test Range (AFETR). Payload-class satellites include a variety of spacecraft equipped with specific instruments for various scientific and technological missions. These include communications satellites like Starlink; space stations such as the ISS; scientific satellites like the Hubble; Earth observation satellites from companies like Planet Labs, Umbra, and HawkEye 360; GPS; miniature CubeSats for education and research; and military/defense satellites.

Loading next visibility...
Identifier
59943, 2024-106X
Orbit
LEO
Country
Flag of USUS
Related business
Manufacturer
SpaceX/Seattle
Mission
Operational Commercial Communications
Bus & Motor
STARLINK V2M, Unknown motor
Mass
730 kg wet, ~700 kg dry
Launch date (UTC)
2024-06-01 (2 years ago)
Launch vehicle
FALCON 9
Launch site
Air Force Eastern Test Range (AFETR)
Object type
Payload
Rocket body
Debris
Shape & HBR
Box + 2 Pan, 17.7 m
Radar Cross Section
33.884 m², Large (>1 m²)

Expand to show TLE details & history
Last TLE update: 1 day ago

TLE from 1 day ago
0 STARLINK-31973
1 59943U 24106X   26034.38260437 -.00004717  00000-0 -16191-3 0  9993
2 59943  42.9997 166.4730 0001024 259.5719 100.5017 15.27598241 95275
Epoch: 2026-02-03T09:10Z
TLE epoch observation values (Epoch: 2026-02-03T09:10:57.017Z)
Latitude
-0.00004°
Longitude
-104.82895°
Altitude
482.898 km
Speed
7.626 km/s
True Right ascension
11h 05m 53s
True Declination
0° 00' 00"
Sunlit
Object was in full shadow at epoch
Visualization orbit readout
Latitude
Unknown
Longitude
Unknown
Altitude
Unknown
Speed
Unknown
Apparent Right ascension
Unknown
Apparent Declination
Unknown
Sunlit
N/A
Visualization observer readout
Local Sidereal Time
13:29:53
Azimuth
Unknown
Elevation
Unknown
Doppler factor
Unknown
Orbital elements
Apogee altitude
485.642 km
Perigee altitude
484.237 km
Semi-major axis
6,863.077 km
Eccentricity
0.0001
Inclination
42.9997°
RAAN
166.473°
Arg. of periapsis
259.5719°
True anomaly
100.51324°
Mean anomaly
100.5017°
Eccentric anomaly
100.50747°
Mean motion
3.81738 °/min
Orbital period
94.31 mins
BSTAR
-0.00016191
Loading maneuver chart data...
Computing Atmospheric mass density...
Loading historical data...
Loading historical data...
Loading historical data...
Loading historical data...
Loading historical data...
Loading historical data...
Loading historical data...

Documentation

Showing up to 5 results
|